Regional Weather Roundup
Issued by NWS Austin/San Antonio, TX

Home | Current Version | Previous Version | Text Only | Print | Product List | Glossary On
Versions: 1 2 3 4 5 6 7 8 9 10 11 12 13 14 15 16 17 18 19 20 21 22 23 24 25 26 27 28 29 30 31 32 33 34 35 36 37 38 39 40 41 42 43 44 45 46 47 48 49 50
000
ASUS44 KEWX 121501
RWREWX
SOUTH TEXAS REGIONAL WEATHER ROUNDUP
NATIONAL WEATHER SERVICE AUSTIN/SAN ANTONIO TX
900 AM CST TUE DEC 12 2017

NOTE: "FAIR" INDICATED FEW OR NO CLOUDS BELOW 12,000 FEET WITH NO
SIGNIFICANT WEATHER AND/OR OBSTRUCTIONS TO VISIBILITY.

* - THESE STATIONS ARE NOT NWS OR FAA STATIONS...AND ARE NOT SUBJECT
    TO NWS AND FAA QUALITY CONTROL.

TXZ171-172-183>190-121600-
TEXAS HILL COUNTRY AND EDWARDS PLATEAU

CITY           SKY/WX    TMP DP  RH WIND       PRES   REMARKS
JUNCTION       SUNNY     40  30  67 CALM      30.45R
*LLANO         SUNNY     48  30  49 N8        30.47R WCI  45
BURNET         SUNNY     49  27  42 N16G22    30.43R WCI  43
*HORSESHOE BAY SUNNY     49  29  44 NW6       30.43R WCI  47
*KERRVILLE     SUNNY     49  25  40 N15G21    30.41R WCI  43
*FREDERICKSBRG SUNNY     48  24  40 N12       30.42R WCI  43
*ROCKSPRINGS   NOT AVBL
*BOERNE STAGE  SUNNY     50  25  37 N14       30.40R WCI  45
*CASTROVILLE   SUNNY     54  25  33 NE9       30.41R
HONDO          SUNNY     54  33  45 N9        30.39R
*UVALDE        SUNNY     47  37  68 CALM      30.42R
DEL RIO        SUNNY     47  42  83 W9        30.46R WCI  43
LAUGHLIN AFB   MOSUNNY   45  39  80 NW8       30.45R WCI  41
CARRIZO SPRGS  SUNNY     46  37  71 N3        30.41R
*EAGLE PASS    SUNNY     48  39  71 NW8       30.44R WCI  45
$$

TXZ173-191>194-202-209-217>225-228-121600-
CENTRAL AND SOUTH CENTRAL TEXAS

CITY           SKY/WX    TMP DP  RH WIND       PRES   REMARKS
GEORGETOWN     SUNNY     50  27  40 N16       30.42R WCI  44
AUSTIN/BERGSTM MOSUNNY   53  28  38 N14       30.40R
AUSTIN/MABRY   SUNNY     52  26  36 N10       30.42R
*AUSTIN/EXEC   SUNNY     48  27  43 N15       30.40R WCI  42
*LAGO VISTA    SUNNY     49  27  42 MISG      30.41R
SAN MARCOS     SUNNY     52  31  44 N15       30.40R
NEW BRAUNFELS  SUNNY     54  27  35 N14       30.38R
RANDOLPH AFB   SUNNY     54  25  33 N20G25    30.38R
PT SAN ANTONIO SUNNY     55  26  33 NE10      30.37R
SAN ANTONIO    MOSUNNY   53  26  35 N13G22    30.39R
STINSON FIELD  SUNNY     56  27  32 N12G18    30.37R
*LA GRANGE       N/A    N/A N/A N/A MISG        N/A
*GIDDINGS      SUNNY     49  28  43 N8G16     30.38R WCI  46
*GONZALES      SUNNY     53  30  41 N13       30.38R
$$

TXZ163>164-176>182-195>201-210>213-226-227-235-121600-
SOUTHEAST TEXAS

CITY           SKY/WX    TMP DP  RH WIND       PRES   REMARKS
COLLEGE STN    SUNNY     52  31  44 N16       30.37R
*BRYAN         SUNNY     50  30  46 N7        30.38R WCI  47
*CALDWELL      SUNNY     49  28  43 N13       30.38R WCI  45
*CROCKETT        N/A     46  30  53 CALM      30.37R
*BRENHAM       SUNNY     52  32  46 N15       30.37R
HUNTSVILLE     SUNNY     50  30  46 N10       30.34R WCI  46
CONROE         SUNNY     52  30  43 N12G20    30.33R
HOUSTON BUSH   MOSUNNY   54  31  41 N15       30.32R
HOUSTON HOBBY  SUNNY     55  31  39 N16       30.31R
*HOUSTON SW AP SUNNY     55  32  41 N9G16     30.33R
PEARLAND       SUNNY     56  31  38 N13G21    30.32R
HOUSTON HOOKS  SUNNY     55  31  39 N9G18     30.33R
ELLINGTON FLD  NOT AVBL
SUGAR LAND     SUNNY     54  35  48 N9        30.32R
*HOUSTON EXEC  NOT AVBL
*CLEVELAND MUN SUNNY     53  30  41 N8        30.33R
*WHARTON       SUNNY     53  31  44 N12       30.34R
*COLUMBUS      FAIR     N/A N/A N/A N6        30.36R
*EAGLE LAKE    SUNNY     53  34  47 N12G17    30.34R
$$

TXZ214>216-236>238-121600-
THE UPPER TEXAS COAST

CITY           SKY/WX    TMP DP  RH WIND       PRES   REMARKS
*ORANGE        SUNNY     53  36  52 N9        30.29R
PORT ARTHUR    SUNNY     54  33  45 N17G23    30.28R
GALVESTON      SUNNY     58  39  49 N20       30.30R
ANGLETON       SUNNY     57  34  41 N18       30.30R
*BAY CITY      SUNNY     55  37  50 N10       30.31R
PALACIOS       SUNNY     52  42  69 N9        30.33R
$$

TXZ229>234-239>247-121600-
TEXAS COASTAL BEND AND RIO GRANDE PLAINS

CITY           SKY/WX    TMP DP  RH WIND       PRES   REMARKS
VICTORIA       MOSUNNY   53  34  48 N12       30.35R
*BEEVILLE      SUNNY     54  33  44 N14G21    30.35R
ROCKPORT       PTSUNNY   53  38  56 N13       30.32R
*PORT ARANSAS  NOT AVBL
*PORT LAVACA   SUNNY     51  39  62 N14       30.34R
*INGLESIDE     NOT AVBL
CORPUS CHRISTI PTSUNNY   56  40  55 N14       30.33R
CORPUS NAS     PTSUNNY   60  43  53 N16       30.33R
*ROBSTOWN      PTSUNNY   53  41  63 N14G20    30.33R
ALICE          CLOUDY    57  36  45 N14       30.35R
KINGSVILLE NAS PTSUNNY   58  45  62 N13       30.33R
COTULLA        SUNNY     55  36  48 N7        30.40R
*FAITH RANCH   SUNNY     52  41  66 N8        30.41R
LAREDO           N/A     51  47  86 NW6       30.39R
$$

TXZ248>255-121600-
DEEP SOUTH TEXAS

CITY           SKY/WX    TMP DP  RH WIND       PRES   REMARKS
BROWNSVILLE    CLOUDY    62  46  55 NW6       30.33R
PORT ISABEL    CLOUDY    58  47  66 NW6       30.32R
*SOUTH PADRE   NOT AVBL
HARLINGEN      PTSUNNY   55  47  74 NW3       30.32R
*HEBBRONVILLE  CLOUDY    56  41  56 N13       30.35R
MCALLEN        CLOUDY    56  47  71 W5        30.34R
*WESLACO       PTSUNNY   54  45  71 NW5       30.33R
FALFURRIAS     NOT AVBL
EDINBURG       NOT AVBL
*ZAPATA        CLOUDY    55  43  64 N6        30.36R
$$

TXZ213>215-236>238-242>244-246-247-251-254-255-121600-
CMAN STATIONS

STATION/POSITION TIME  TEMP    WIND        PRES    WAVE
                       AIR SEA DIR/SP/G            HT/PER
                 (UTC) (F)     (DEG/KT/KT) (MB)    (FT/S)
SABINE PASS      1424   54 58  350/ 12/ 18 1026.1
SEA RIM ST PARK  1400   46     360/  6/  7 1024.9
NORTH JETTY/GLS  1430      58  350/ 17/ 20 1024.8
EAGLE POINT      1430   55 55   10/ 11/ 14 1025.9
MORGANS POINT    1430   53 57  340/  9/ 13 1026.0
PORT O`CONNOR    1430   53 54   10/ 13/ 16 1026.3
MALAQUITE BEACH  1430   58 61  340/ 14/ 16 1026.0
BAFFIN BAY       1430   53 54  300/  9/ 11 1026.5
PORT ISABEL      1430   55 56  310/  5/  7 1026.3
$$




USA.gov is the U.S. government's official web portal to all federal, state and local government web resources and services.